When you browse on this site, cookies collect data to enhance your experience and personalize the content and advertising you see.
Visit our Privacy Policy to learn more. By continuing to use the site, you agree to this use of cookies and data.
  • en France
  • Liste des pays
  • À 7 jours
  • Température de l'eau
  • Carte météo
  • Widgets météo
  • user-avatar
    Se connecter

    Météo par heure à Abbeville

    Ce jour, 14 Novembre, Jeudi

    Heure Température Précipitation Vent Pression Humidité
    00:00 +4°C° 0.3 mm 7 m/s 743 mmHg 86%
    01:00 +4°C° 1.3 mm 7 m/s 742 mmHg 87%
    02:00 +4°C° 1.3 mm 7 m/s 742 mmHg 89%
    03:00 +4°C° 1.3 mm 7 m/s 741 mmHg 91%
    04:00 +4°C° 1.1 mm 6 m/s 742 mmHg 91%
    05:00 +5°C° 1.1 mm 5 m/s 742 mmHg 92%
    06:00 +5°C° 1.1 mm 5 m/s 742 mmHg 92%
    07:00 +5°C° 0.6 mm 4 m/s 743 mmHg 91%
    08:00 +5°C° 0.6 mm 4 m/s 744 mmHg 89%
    09:00 +5°C° 0.6 mm 4 m/s 744 mmHg 87%
    10:00 +5°C° 0 mm 4 m/s 744 mmHg 84%
    11:00 +6°C° 0 mm 5 m/s 745 mmHg 81%
    12:00 +7°C° 0 mm 5 m/s 745 mmHg 78%
    13:00 +6°C° 0 mm 5 m/s 745 mmHg 79%
    14:00 +6°C° 0 mm 4 m/s 746 mmHg 80%
    15:00 +7°C° 0 mm 3 m/s 746 mmHg 81%
    16:00 +5°C° 0 mm 3 m/s 746 mmHg 84%
    17:00 +4°C° 0 mm 3 m/s 747 mmHg 87%
    18:00 +4°C° 0 mm 2 m/s 747 mmHg 90%
    19:00 +4°C° 0 mm 2 m/s 747 mmHg 90%
    20:00 +4°C° 0 mm 2 m/s 748 mmHg 91%
    21:00 +5°C° 0 mm 1 m/s 748 mmHg 91%
    22:00 +4°C° 0 mm 2 m/s 748 mmHg 92%
    23:00 +4°C° 0 mm 2 m/s 748 mmHg 92%

    Demain, 15 Novembre, Vendredi

    Heure Température Précipitation Vent Pression Humidité
    00:00 +3°C° 0 mm 2 m/s 748 mmHg 93%
    01:00 +3°C° 0 mm 3 m/s 748 mmHg 92%
    02:00 +3°C° 0 mm 3 m/s 748 mmHg 91%
    03:00 +3°C° 0 mm 3 m/s 748 mmHg 91%
    04:00 +3°C° 0 mm 3 m/s 748 mmHg 90%
    05:00 +3°C° 0 mm 4 m/s 748 mmHg 89%
    06:00 +4°C° 0 mm 4 m/s 748 mmHg 89%
    07:00 +3°C° 0.1 mm 4 m/s 748 mmHg 88%
    08:00 +2°C° 0.1 mm 5 m/s 748 mmHg 88%
    09:00 +2°C° 0.1 mm 5 m/s 748 mmHg 88%
    10:00 +2°C° 0.3 mm 5 m/s 748 mmHg 87%
    11:00 +2°C° 0.3 mm 5 m/s 748 mmHg 87%
    12:00 +2°C° 0.3 mm 5 m/s 747 mmHg 87%
    13:00 +3°C° 0.1 mm 5 m/s 747 mmHg 87%
    14:00 +4°C° 0.1 mm 4 m/s 748 mmHg 87%
    15:00 +4°C° 0.1 mm 4 m/s 748 mmHg 87%
    16:00 +4°C° 0 mm 3 m/s 748 mmHg 88%
    17:00 +3°C° 0 mm 3 m/s 748 mmHg 90%
    18:00 +3°C° 0 mm 3 m/s 748 mmHg 92%
    19:00 +3°C° 0.1 mm 3 m/s 749 mmHg 92%
    20:00 +4°C° 0.1 mm 2 m/s 749 mmHg 92%
    21:00 +4°C° 0.1 mm 2 m/s 750 mmHg 93%
    22:00 +4°C° 0 mm 2 m/s 750 mmHg 93%
    23:00 +4°C° 0 mm 2 m/s 751 mmHg 93%

    Après-demain, 16 Novembre, Samedi

    Heure Température Précipitation Vent Pression Humidité
    00:00 +3°C° 0 mm 2 m/s 751 mmHg 94%
    01:00 +3°C° 0 mm 2 m/s 751 mmHg 94%
    02:00 +3°C° 0 mm 1 m/s 751 mmHg 94%
    03:00 +3°C° 0 mm 1 m/s 752 mmHg 94%
    04:00 +3°C° 0 mm 1 m/s 752 mmHg 93%
    05:00 +3°C° 0 mm 1 m/s 752 mmHg 92%
    06:00 +3°C° 0 mm 1 m/s 752 mmHg 91%
    07:00 +3°C° 0 mm 1 m/s 753 mmHg 89%
    08:00 +3°C° 0 mm 2 m/s 753 mmHg 87%
    09:00 +4°C° 0 mm 2 m/s 754 mmHg 86%
    10:00 +4°C° 0 mm 3 m/s 754 mmHg 82%
    11:00 +5°C° 0 mm 3 m/s 754 mmHg 78%
    12:00 +6°C° 0 mm 4 m/s 755 mmHg 75%
    13:00 +6°C° 0 mm 4 m/s 755 mmHg 76%
    14:00 +7°C° 0 mm 3 m/s 755 mmHg 78%
    15:00 +7°C° 0 mm 3 m/s 755 mmHg 80%
    16:00 +5°C° 0 mm 3 m/s 755 mmHg 83%
    17:00 +4°C° 0 mm 3 m/s 755 mmHg 86%
    18:00 +3°C° 0 mm 3 m/s 756 mmHg 89%
    19:00 +3°C° 0 mm 3 m/s 756 mmHg 90%
    20:00 +3°C° 0 mm 3 m/s 756 mmHg 91%
    21:00 +3°C° 0 mm 3 m/s 756 mmHg 93%
    22:00 +3°C° 0 mm 3 m/s 756 mmHg 92%
    23:00 +3°C° 0 mm 3 m/s 756 mmHg 92%

    17 Novembre, Dimanche

    Heure Température Précipitation Vent Pression Humidité
    00:00 +3°C° 0 mm 3 m/s 756 mmHg 92%
    01:00 +3°C° 0 mm 3 m/s 756 mmHg 91%
    02:00 +3°C° 0 mm 3 m/s 756 mmHg 91%
    03:00 +3°C° 0 mm 3 m/s 756 mmHg 91%
    04:00 +3°C° 0 mm 3 m/s 756 mmHg 90%
    05:00 +2°C° 0 mm 3 m/s 756 mmHg 90%
    06:00 +3°C° 0 mm 2 m/s 756 mmHg 90%
    07:00 +4°C° 0 mm 2 m/s 756 mmHg 88%
    08:00 +4°C° 0 mm 2 m/s 756 mmHg 87%
    09:00 +6°C° 0 mm 1 m/s 756 mmHg 85%
    10:00 +7°C° 0 mm 1 m/s 756 mmHg 82%
    11:00 +8°C° 0 mm 1 m/s 756 mmHg 78%
    12:00 +9°C° 0 mm 1 m/s 756 mmHg 75%
    13:00 +9°C° 0 mm 1 m/s 756 mmHg 78%
    14:00 +9°C° 0 mm 1 m/s 756 mmHg 81%
    15:00 +9°C° 0 mm 1 m/s 756 mmHg 84%
    16:00 +7°C° 0.1 mm 2 m/s 755 mmHg 87%
    17:00 +7°C° 0.1 mm 2 m/s 755 mmHg 90%
    18:00 +7°C° 0.1 mm 3 m/s 755 mmHg 93%
    19:00 +6°C° 0.2 mm 4 m/s 755 mmHg 93%
    20:00 +6°C° 0.2 mm 4 m/s 755 mmHg 94%
    21:00 +7°C° 0.2 mm 5 m/s 755 mmHg 94%
    22:00 +6°C° 0.2 mm 4 m/s 755 mmHg 94%
    23:00 +7°C° 0.2 mm 3 m/s 755 mmHg 94%

    18 Novembre, Lundi

    Heure Température Précipitation Vent Pression Humidité
    00:00 +6°C° 0.2 mm 2 m/s 754 mmHg 94%
    01:00 +6°C° 0.3 mm 2 m/s 754 mmHg 94%
    02:00 +6°C° 0.3 mm 2 m/s 754 mmHg 94%
    03:00 +6°C° 0.3 mm 2 m/s 754 mmHg 93%
    04:00 +7°C° 0.4 mm 1 m/s 754 mmHg 93%
    05:00 +7°C° 0.4 mm 1 m/s 754 mmHg 93%
    06:00 +6°C° 0.4 mm 1 m/s 754 mmHg 93%
    07:00 +6°C° 0.4 mm 2 m/s 754 mmHg 92%
    08:00 +5°C° 0.4 mm 3 m/s 754 mmHg 92%
    09:00 +7°C° 0.4 mm 3 m/s 754 mmHg 91%
    10:00 +6°C° 0.3 mm 4 m/s 754 mmHg 90%
    11:00 +6°C° 0.3 mm 5 m/s 754 mmHg 90%
    12:00 +5°C° 0.3 mm 6 m/s 754 mmHg 89%
    13:00 +6°C° 0 mm 5 m/s 754 mmHg 88%
    14:00 +6°C° 0 mm 5 m/s 754 mmHg 86%
    15:00 +6°C° 0 mm 5 m/s 754 mmHg 84%
    16:00 +6°C° 0 mm 5 m/s 755 mmHg 84%
    17:00 +5°C° 0 mm 4 m/s 755 mmHg 84%
    18:00 +5°C° 0 mm 4 m/s 755 mmHg 84%
    19:00 +5°C° 0.1 mm 4 m/s 755 mmHg 82%
    20:00 +5°C° 0.1 mm 4 m/s 755 mmHg 81%
    21:00 +5°C° 0.1 mm 3 m/s 756 mmHg 79%
    22:00 +4°C° 0.1 mm 3 m/s 756 mmHg 79%
    23:00 +4°C° 0.1 mm 3 m/s 756 mmHg 79%

    19 Novembre, Mardi

    Heure Température Précipitation Vent Pression Humidité
    00:00 +4°C° 0.1 mm 3 m/s 756 mmHg 79%
    01:00 +3°C° 0 mm 3 m/s 756 mmHg 80%
    02:00 +3°C° 0 mm 3 m/s 756 mmHg 82%
    03:00 +3°C° 0 mm 3 m/s 755 mmHg 83%
    04:00 +2°C° 0 mm 3 m/s 755 mmHg 84%
    05:00 +1°C° 0 mm 4 m/s 755 mmHg 85%
    06:00 +1°C° 0 mm 4 m/s 755 mmHg 86%
    07:00 +1°C° 0 mm 5 m/s 755 mmHg 84%
    08:00 +2°C° 0 mm 5 m/s 754 mmHg 82%
    09:00 +2°C° 0 mm 6 m/s 754 mmHg 80%
    10:00 +3°C° 0 mm 6 m/s 754 mmHg 80%
    11:00 +4°C° 0 mm 7 m/s 753 mmHg 80%
    12:00 +5°C° 0 mm 8 m/s 752 mmHg 81%
    13:00 +5°C° 0.4 mm 8 m/s 752 mmHg 82%
    14:00 +5°C° 0.4 mm 8 m/s 751 mmHg 83%
    15:00 +5°C° 0.4 mm 8 m/s 750 mmHg 83%
    16:00 +5°C° 0.6 mm 8 m/s 750 mmHg 84%
    17:00 +5°C° 0.6 mm 8 m/s 750 mmHg 85%
    18:00 +5°C° 0.6 mm 8 m/s 750 mmHg 85%
    19:00 +5°C° 0.3 mm 7 m/s 750 mmHg 87%
    20:00 +5°C° 0.3 mm 7 m/s 749 mmHg 88%
    21:00 +5°C° 0.3 mm 7 m/s 749 mmHg 89%
    22:00 +5°C° 0 mm 6 m/s 749 mmHg 90%
    23:00 +5°C° 0 mm 6 m/s 749 mmHg 91%
    Voir plus